Вернуться в каталог

BEIDOU 3M21

АктивенНавигацияMEO
NORAD 44793·PAYLOAD·🇨🇳 China

Запущен Nov 23, 2019 с Xichang Satellite Launch Center

Loading…

Ближайшие Пролёты (ближайшие 24 часа)

TLE

СвежийSource: Space-Track

Эпоха: Sep 14, 2026, 05:13 UTC

1 44793U 19078A   26257.21795676 -.00000059  00000-0  00000-0 0  9992
2 44793  53.8521 296.6877 0004864  42.8502 317.2452  1.86227095 46308

Отслеживайте BEIDOU 3M21 в реальном времени с AllMySat

Download on the App Store